Wind_Speed
13 13 13 13 14 14 14 14 14 15 16 17 17 17 17 17 18 18 19 19 21 21 22 23 23 23 23 23 24 24 25 26 27 26 26 27 27 26 25 26 25 25 25 25
13 13 12 12 12 13 13 13 14 15 16 17 16 17 17 17 18 19 19 20 20 21 22 23 23 23 24 24 24 26 27 27 27 28 28 28 27 26 26 25 25 25 25 25
11 11 11 12 12 12 13 14 14 15 16 17 17 17 17 18 19 20 20 20 21 22 22 23 24 24 25 25 26 28 29 29 29 29 29 28 27 27 26 25 25 24 25 26
11 10 11 11 11 12 13 13 13 14 16 17 18 19 19 20 20 21 21 21 21 22 22 23 24 25 26 26 26 28 29 30 31 30 29 28 27 26 25 25 25 25 25 25
11 11 11 11 10 12 13 13 13 14 15 16 18 20 19 19 20 20 21 21 21 23 24 25 26 26 26 26 27 29 30 31 31 30 29 27 26 26 25 25 24 24 25 25
9 10 11 11 11 12 12 13 14 14 14 16 18 20 19 19 20 21 21 21 22 24 25 25 26 27 27 27 28 29 30 30 30 29 27 26 25 24 24 24 23 23 23 24
9 10 10 11 12 12 12 13 14 15 16 16 18 19 18 19 20 21 22 22 23 25 26 26 26 27 28 28 29 29 30 30 29 27 26 25 25 24 24 24 24 23 22 21
9 9 10 11 12 12 12 13 15 16 17 17 17 18 19 20 22 23 24 24 25 26 27 27 28 28 29 29 29 30 29 29 27 26 25 24 24 23 22 23 23 21 21 21
9 9 10 12 13 13 14 15 16 17 18 19 19 19 20 22 23 24 26 26 26 27 27 27 28 28 29 29 29 29 29 28 27 25 24 23 23 23 23 23 22 21 21 21
10 10 11 12 14 15 16 16 17 18 20 21 21 21 22 23 24 26 26 26 27 27 28 26 27 27 28 28 28 28 28 27 26 25 25 24 23 23 23 22 21 20 21 21
11 12 12 13 15 16 17 17 18 19 20 21 23 23 24 25 25 26 26 27 27 28 27 25 26 26 27 27 28 27 27 26 25 25 24 24 23 23 22 20 20 20 19 19
12 13 13 14 16 17 17 18 19 20 20 21 24 24 25 26 26 25 25 25 26 26 25 24 24 25 25 26 27 26 25 25 25 25 24 23 23 22 21 20 19 19 19 19
14 14 15 15 16 17 17 18 19 20 21 22 24 24 25 26 25 24 24 25 25 25 24 24 24 24 25 25 25 25 24 25 25 25 24 23 22 21 20 19 19 19 18 18
15 16 16 16 16 17 17 18 19 20 21 23 23 23 24 24 24 23 24 24 25 24 23 23 23 24 25 25 25 25 24 25 25 24 24 23 22 21 20 19 19 18 17 17
17 17 17 17 17 18 19 19 20 21 22 23 23 23 23 24 24 25 24 24 23 23 22 23 24 25 25 26 26 26 25 25 25 24 24 23 22 21 21 20 19 18 18 18
18 18 18 18 19 20 21 21 21 22 22 23 23 23 24 24 25 25 25 24 24 23 23 24 24 25 26 26 26 25 24 24 24 24 24 23 22 21 21 20 18 17 17 17
18 18 19 19 20 21 21 21 21 22 22 23 23 24 24 24 24 25 25 25 24 24 24 25 25 26 26 26 26 25 24 24 24 23 23 23 23 22 21 20 18 17 17 16
19 19 19 20 21 21 21 21 22 22 23 23 23 24 25 25 25 25 25 25 24 24 25 26 26 26 26 27 26 25 24 24 24 23 23 23 23 21 21 20 19 18 17 17
19 20 20 20 21 22 22 22 23 23 23 24 24 24 24 25 25 25 25 24 24 25 25 26 26 26 26 26 26 25 24 24 24 23 23 23 22 21 20 20 20 20 19 19
20 20 21 21 22 22 23 23 23 24 24 24 24 25 25 25 25 24 24 25 25 26 26 26 26 26 26 26 26 25 24 24 23 22 22 22 21 21 20 21 22 21 19 18
21 21 20 21 22 22 23 23 24 24 24 25 25 25 24 25 25 25 26 26 26 26 26 26 26 26 26 26 26 25 24 24 23 22 22 21 21 21 21 22 22 20 19 18
21 21 21 21 22 23 23 23 23 24 24 25 25 25 25 26 26 26 26 26 26 26 26 26 26 27 26 26 26 25 24 23 22 21 21 21 20 20 21 21 21 20 19 18
22 22 22 23 23 23 24 24 24 25 26 26 26 26 26 26 27 27 27 26 26 26 26 26 26 27 26 26 26 25 24 23 22 21 21 21 21 21 21 20 20 19 18 17
23 23 24 24 24 24 24 25 25 25 26 26 27 27 27 27 27 28 27 26 26 27 27 26 26 27 27 26 25 24 23 23 22 22 22 22 22 21 20 20 19 18 17 17
24 25 25 25 25 25 25 25 25 26 26 27 27 27 28 28 28 29 28 26 26 27 28 27 26 26 26 25 24 24 24 23 23 23 22 21 21 21 20 19 18 18 18 17
25 26 26 26 26 26 26 26 26 26 26 27 27 28 28 28 28 28 27 26 27 27 28 27 26 26 26 25 25 24 24 24 24 23 22 21 21 20 19 18 17 17 17 16
Wind_Direction
242 246 253 260 265 270 275 279 281 282 287 288 290 292 295 299 299 301 305 308 311 315 316 316 317 316 315 312 310 310 309 309 307 305 304 302 299 296 295 294 293 291 289 288
245 249 255 260 267 271 277 281 283 283 285 287 291 296 300 302 304 305 307 310 311 313 313 313 314 317 316 313 311 309 309 310 309 307 305 302 299 295 294 293 292 290 287 286
253 256 256 260 267 272 279 284 284 284 286 289 295 299 302 303 305 306 306 306 307 309 311 311 312 314 313 313 312 310 311 311 310 308 307 304 301 296 295 293 291 287 285 284
253 257 258 261 267 273 278 282 285 286 290 293 296 299 302 303 304 305 305 305 305 306 310 312 312 313 313 314 314 315 315 314 313 310 307 305 302 299 296 294 290 288 285 283
254 259 261 263 268 274 278 281 285 288 292 295 297 298 302 302 302 305 304 303 304 305 308 311 313 314 315 315 316 317 318 317 316 313 310 306 304 301 297 295 292 289 286 284
253 259 263 268 271 276 281 284 287 290 292 296 299 298 303 305 305 305 308 305 306 307 309 312 314 315 315 315 316 318 319 317 316 314 312 309 306 302 298 296 293 290 287 284
258 265 269 273 279 279 284 287 289 292 295 299 300 300 307 309 309 308 311 309 308 309 311 312 313 315 315 315 316 318 319 318 317 315 313 311 309 304 300 297 295 292 287 283
263 267 272 278 282 284 288 290 293 297 300 302 302 304 308 309 309 311 313 312 311 312 314 315 315 315 316 317 318 319 319 319 319 317 316 315 313 309 305 302 299 294 288 284
269 273 277 282 285 288 293 293 297 298 301 303 305 308 310 311 311 311 313 313 315 315 314 314 316 316 317 317 319 320 321 321 320 318 318 318 316 312 308 304 302 298 292 289
272 274 277 283 285 287 293 296 297 300 303 305 307 310 313 314 313 313 313 311 312 312 312 313 315 316 317 317 318 320 321 322 321 319 318 318 318 315 310 307 303 299 297 293
276 278 280 280 282 285 289 293 296 298 301 304 308 311 314 314 315 314 314 312 312 313 315 315 316 317 318 320 321 322 322 322 322 323 322 319 317 315 312 309 304 302 297 295
280 282 285 284 284 284 288 293 296 298 301 303 306 311 313 313 315 314 314 314 314 313 316 317 319 321 321 321 322 322 323 323 323 323 323 321 318 316 312 309 307 303 300 296
281 283 285 285 288 288 290 293 295 296 300 303 307 311 313 314 315 314 314 313 314 313 312 314 317 320 320 321 322 322 322 321 321 321 321 320 317 314 313 313 310 305 301 298
278 281 283 288 291 291 290 294 297 299 302 305 307 308 310 313 315 314 314 313 314 313 312 314 317 319 319 320 320 320 319 319 320 320 318 317 315 313 312 312 311 306 299 297
280 282 286 287 289 290 292 295 298 299 302 304 306 306 310 313 315 316 315 314 314 314 315 316 318 319 320 321 321 319 317 317 318 319 318 318 316 313 311 310 309 307 306 303
282 283 286 288 291 292 293 296 299 300 301 303 305 307 310 312 314 315 317 317 318 318 317 318 319 321 321 321 320 320 318 319 321 321 320 319 318 316 314 312 311 309 310 305
282 285 289 290 291 292 293 297 298 299 301 303 305 306 308 310 311 313 315 317 318 317 316 318 318 319 320 321 320 319 318 320 320 320 320 319 318 316 316 315 313 306 306 306
281 283 287 290 292 291 297 298 300 301 303 304 305 306 308 309 310 312 314 316 316 315 315 317 318 320 321 323 322 321 320 320 321 321 320 320 319 318 316 315 312 306 304 302
282 284 287 290 293 295 296 299 300 301 302 304 305 306 307 307 309 310 312 314 314 314 315 317 318 319 321 323 323 321 320 320 319 319 319 320 318 317 317 315 313 308 302 301
282 285 287 291 294 297 299 300 301 301 301 304 305 305 305 306 307 309 310 312 313 313 314 315 317 318 320 321 322 321 320 320 319 319 319 320 319 317 317 317 316 312 307 303
281 283 286 289 292 294 298 301 302 300 303 303 304 305 306 307 309 310 311 312 312 312 312 314 315 316 317 318 320 320 318 319 319 319 320 320 320 320 319 319 318 313 309 306
281 282 284 286 289 292 296 300 301 303 302 303 303 304 305 306 308 309 311 311 311 311 311 312 314 315 316 317 319 320 319 319 319 318 318 318 318 319 319 319 318 314 310 307
280 281 283 285 289 292 295 297 299 301 302 303 303 304 305 307 308 309 310 311 311 311 310 311 313 314 316 316 318 318 318 318 317 316 316 317 317 318 318 318 317 315 314 312
280 281 282 284 286 288 291 293 295 298 300 302 302 303 304 305 307 308 310 310 310 310 311 312 313 314 316 316 317 316 316 316 316 315 315 314 315 316 315 315 316 317 316 315
278 279 281 283 285 286 288 291 294 297 300 301 302 303 303 304 305 307 308 309 309 310 312 313 313 315 315 315 315 315 315 314 314 314 314 313 314 315 314 314 315 317 318 316
276 278 280 282 284 286 288 290 293 296 299 301 302 302 303 303 305 306 307 308 310 311 312 313 313 315 316 315 314 314 314 314 314 313 312 312 312 313 313 314 315 316 316 316
Height
5866 5867 5867 5868 5868 5867 5866 5865 5864 5863 5861 5860 5859 5858 5858 5857 5855 5854 5852 5849 5847 5844 5841 5838 5835 5832 5828 5825 5821 5819 5816 5812 5809 5806 5804 5801 5798 5795 5793 5791 5789 5787 5786 5785
5865 5866 5866 5865 5865 5864 5863 5863 5862 5861 5859 5857 5857 5856 5855 5854 5852 5850 5848 5846 5843 5841 5837 5834 5831 5828 5824 5821 5817 5814 5810 5806 5803 5800 5796 5793 5791 5788 5786 5783 5782 5780 5779 5778
5863 5864 5863 5863 5862 5862 5861 5860 5859 5858 5856 5855 5854 5854 5853 5851 5849 5847 5845 5842 5840 5837 5834 5830 5827 5823 5820 5816 5812 5808 5804 5800 5797 5793 5789 5786 5783 5781 5778 5776 5775 5773 5771 5771
5860 5861 5861 5860 5860 5859 5859 5858 5857 5855 5854 5852 5852 5850 5850 5848 5846 5844 5842 5839 5836 5833 5830 5826 5822 5818 5815 5811 5807 5803 5798 5794 5790 5785 5781 5778 5775 5772 5770 5768 5767 5765 5764 5763
5858 5858 5858 5858 5858 5857 5857 5855 5854 5853 5851 5851 5849 5848 5847 5844 5843 5841 5838 5835 5832 5829 5825 5822 5817 5813 5809 5805 5801 5797 5792 5787 5783 5778 5774 5770 5767 5764 5762 5760 5759 5757 5757 5756
5856 5856 5856 5856 5856 5855 5854 5853 5852 5851 5849 5849 5847 5845 5844 5842 5839 5837 5833 5830 5828 5824 5821 5817 5813 5808 5804 5800 5795 5791 5786 5781 5776 5772 5768 5764 5760 5757 5755 5753 5751 5750 5749 5748
5854 5854 5854 5854 5853 5853 5852 5851 5850 5848 5847 5846 5844 5842 5841 5838 5836 5833 5830 5827 5823 5819 5815 5811 5807 5803 5799 5794 5789 5785 5780 5775 5770 5766 5762 5758 5754 5751 5749 5747 5745 5743 5742 5742
5852 5852 5852 5852 5851 5850 5849 5849 5848 5846 5844 5843 5841 5839 5838 5835 5831 5828 5825 5821 5818 5814 5809 5805 5802 5797 5793 5788 5783 5779 5774 5769 5765 5760 5757 5753 5749 5745 5743 5741 5739 5737 5736 5735
5850 5850 5850 5849 5848 5848 5847 5845 5845 5843 5840 5839 5837 5836 5833 5830 5827 5824 5820 5817 5813 5809 5804 5800 5796 5792 5787 5783 5778 5773 5768 5764 5759 5755 5751 5747 5744 5740 5738 5735 5733 5731 5730 5729
5848 5848 5848 5847 5846 5845 5844 5843 5841 5839 5837 5834 5833 5831 5829 5826 5823 5819 5816 5812 5808 5804 5799 5795 5791 5787 5782 5778 5773 5768 5764 5759 5755 5750 5746 5742 5739 5735 5733 5730 5728 5726 5724 5723
5845 5846 5845 5844 5843 5841 5841 5839 5837 5836 5834 5831 5828 5829 5825 5821 5818 5814 5811 5807 5802 5799 5794 5790 5786 5782 5777 5773 5768 5764 5759 5755 5750 5746 5742 5738 5735 5731 5728 5726 5723 5721 5719 5718
5842 5842 5842 5841 5840 5838 5837 5836 5834 5833 5830 5828 5825 5826 5820 5816 5812 5809 5806 5802 5798 5794 5789 5786 5782 5778 5773 5769 5764 5760 5755 5751 5746 5742 5738 5734 5730 5727 5724 5722 5720 5717 5715 5714
5840 5840 5839 5838 5838 5836 5833 5832 5830 5829 5827 5824 5821 5822 5815 5812 5808 5805 5801 5797 5793 5789 5785 5781 5778 5773 5769 5765 5760 5756 5751 5747 5742 5738 5734 5730 5727 5724 5721 5718 5716 5713 5711 5710
5837 5836 5836 5835 5833 5831 5830 5828 5827 5825 5822 5820 5818 5815 5812 5808 5804 5801 5797 5793 5789 5785 5781 5778 5774 5770 5765 5761 5756 5752 5747 5743 5738 5734 5730 5727 5723 5720 5717 5714 5712 5710 5707 5706
5833 5833 5832 5831 5829 5828 5826 5825 5823 5821 5818 5816 5813 5810 5807 5804 5800 5796 5792 5788 5784 5781 5778 5774 5770 5765 5761 5756 5752 5747 5743 5738 5734 5730 5726 5722 5719 5716 5713 5711 5708 5706 5704 5702
5829 5829 5828 5827 5825 5823 5822 5820 5818 5816 5814 5811 5808 5806 5802 5799 5795 5792 5788 5784 5780 5777 5773 5769 5765 5761 5756 5751 5747 5742 5738 5733 5729 5726 5722 5719 5715 5713 5710 5707 5705 5703 5700 5699
5826 5825 5823 5822 5821 5819 5818 5816 5814 5812 5809 5807 5804 5802 5798 5794 5791 5787 5784 5780 5776 5772 5769 5765 5760 5756 5751 5747 5742 5738 5733 5729 5725 5721 5718 5714 5711 5709 5706 5704 5701 5699 5697 5695
5822 5820 5819 5818 5817 5815 5816 5811 5809 5807 5804 5802 5799 5796 5793 5790 5786 5783 5779 5775 5772 5768 5764 5760 5756 5751 5747 5742 5738 5733 5729 5725 5721 5718 5714 5710 5707 5705 5702 5700 5697 5695 5693 5691
5817 5816 5814 5813 5811 5810 5809 5806 5804 5802 5799 5797 5794 5791 5788 5785 5782 5779 5775 5771 5767 5763 5759 5755 5751 5747 5742 5738 5733 5729 5725 5721 5717 5714 5710 5707 5704 5701 5698 5696 5693 5691 5689 5686
5813 5811 5810 5808 5806 5805 5805 5802 5799 5797 5794 5792 5788 5785 5783 5780 5777 5775 5770 5766 5762 5758 5754 5750 5746 5742 5738 5734 5730 5725 5721 5717 5714 5710 5707 5703 5700 5697 5694 5691 5688 5686 5683 5681
5808 5806 5805 5803 5802 5800 5799 5796 5794 5793 5790 5786 5783 5780 5777 5774 5772 5769 5764 5761 5757 5753 5749 5746 5742 5738 5734 5730 5725 5721 5717 5713 5709 5706 5703 5699 5696 5693 5690 5687 5684 5681 5678 5676
5802 5801 5800 5798 5797 5797 5793 5791 5789 5787 5783 5780 5778 5775 5772 5769 5766 5763 5759 5756 5752 5748 5745 5741 5737 5733 5729 5725 5721 5717 5713 5709 5705 5702 5699 5696 5692 5689 5686 5683 5680 5677 5674 5671
5796 5796 5794 5793 5793 5790 5787 5785 5783 5780 5778 5775 5772 5770 5767 5764 5761 5757 5754 5750 5747 5743 5739 5736 5732 5728 5724 5720 5716 5712 5709 5705 5701 5698 5695 5692 5689 5685 5682 5679 5676 5673 5670 5667
5790 5789 5788 5787 5786 5784 5782 5780 5777 5775 5772 5770 5767 5764 5761 5758 5755 5752 5749 5745 5741 5738 5734 5730 5727 5723 5719 5715 5711 5707 5704 5701 5697 5694 5690 5687 5684 5681 5678 5675 5672 5669 5666 5664
5784 5782 5781 5780 5779 5777 5776 5774 5771 5769 5766 5764 5761 5758 5756 5753 5750 5747 5743 5739 5736 5732 5729 5725 5721 5718 5714 5710 5706 5703 5699 5696 5692 5689 5686 5683 5679 5676 5673 5670 5668 5665 5663 5660
5777 5776 5775 5774 5773 5771 5769 5767 5765 5763 5760 5758 5755 5753 5750 5747 5744 5741 5737 5734 5730 5727 5723 5720 5716 5713 5709 5705 5701 5698 5694 5691 5687 5684 5681 5678 5675 5672 5669 5666 5664 5661 5659 5657